Regional Weather Roundup
Issued by NWS State College, PA

Home | Current Version | Previous Version | Text Only | Print | Product List | Glossary On
Versions: 1 2 3 4 5 6 7 8 9 10 11 12 13 14 15 16 17 18 19 20 21 22 23 24 25 26 27 28 29 30 31 32 33 34 35 36 37 38 39 40 41 42 43 44 45 46 47 48 49 50
000
ASUS41 KCTP 181210
RWRCTP

REGIONAL WEATHER ROUNDUP
NATIONAL WEATHER SERVICE STATE COLLEGE PA
700 AM EST THU DEC 18 2014

Note: "fair" indicates few or no clouds below 12,000 feet with no
significant weather and/or obstructions to visibility.

* = STATION THAT DOES NOT REPORT PRECIPITATION /E.G. RAIN...SNOW...ETC/
    THUNDER OR FOG.

PAZ002>004-007>009-013>016-020>023-029>032-181300-
WESTERN PENNSYLVANIA

CITY           SKY/WX    TMP DP  RH WIND       PRES   REMARKS
ERIE           CLOUDY    32  24  72 W9        30.15R
MEADVILLE      CLOUDY    28  22  78 W8        30.12R
FRANKLIN*      CLOUDY    27  19  74 W7        30.13R
NEW CASTLE       N/A     27  21  77 SW7       30.18S
BEAVER COUNTY  NOT AVBL
BUTLER*        CLOUDY    27  19  74 W10       30.18R
PITTSBURGH INT FLURRIES  28  20  71 W6        30.18R
PITTSBURGH     CLOUDY    27  17  66 W8        30.16S
INDIANA*       CLOUDY    27  21  80 W12       30.17R
LATROBE        CLOUDY   N/A N/A N/A W14       30.17S
WASHINGTON CO* CLOUDY    27  18  69 W6        30.20S
$$

PAZ004>006-010>012-017>019-024>028-033>037-041-042-045-046-049>053-181300-
CENTRAL PENNSYLVANIA

CITY           SKY/WX    TMP DP  RH WIND       PRES   REMARKS
BRADFORD       CLOUDY    25  20  81 W16G23    30.03R WCI  12
DUBOIS         CLOUDY    26  21  81 W12       30.07R
CLEARFIELD     CLOUDY    27  21  78 W10       30.08R
JOHNSTOWN      CLOUDY    23  17  78 W18       30.06R WCI   9
ALTOONA        CLOUDY    27  20  75 W13       30.09R
STATE COLLEGE  CLOUDY    28  21  74 NW12G18   30.08R
WILLIAMSPORT   CLOUDY    34  21  59 W12       30.05R
SELINSGROVE    CLOUDY    34  22  61 W8        30.07S
FT INDIANTOWN  CLOUDY    33  19  56 NW8G20    30.06R
CAPITAL CITY   CLOUDY    34  19  54 W10       30.09R
HARRISBURG     CLOUDY    34  19  54 NW18      30.08R
YORK           CLOUDY    34  20  56 W10G20    30.08R
$$

PAZ038>040-043-044-047-048-054-055-060>062-067>071-181300-
EASTERN PENNSYLVANIA

CITY           SKY/WX    TMP DP  RH WIND       PRES   REMARKS
SCRANTON       CLOUDY    33  21  61 NW16      29.99R
MOUNT POCONO   CLOUDY    28  19  69 NW12G21   29.91R
ALLENTOWN      CLOUDY    36  21  54 NW17G24   30.00R
QUAKERTOWN*    CLOUDY    34  23  64 NW7       30.02R
READING        MOCLDY    34  20  56 NW16      30.04R
LANCASTER      CLOUDY    33  19  56 NW15G25   30.06R
COATESVILLE    CLOUDY    34  23  64 W13       30.04R
POTTSTOWN      CLOUDY    33  21  61 W10G20    30.04R
BLUE BELL      CLOUDY    34  23  64 W5        30.02R
DOYLESTOWN     CLOUDY    32  22  66 W13       30.01R
WILLOW GROVE   NOT AVBL
NORTH PHILA    MOCLDY    35  18  49 W12       30.05R
PHILADELPHIA   PTCLDY    35  18  49 W10       30.06R
$$



USA.gov is the U.S. government's official web portal to all federal, state and local government web resources and services.